WZ9ZZZ-1 Weather Reports


time (UTC)temp
F
wind
direction
speed
knots
gust
knots
rain 1hr
in
rain 24hr
in
rain mn
in
humidity
%
barometer
mb
20260505153349 78 246 7.0 7.8 0.00 0.00 0.00 84 1013.3
20260505152846 78 264 3.5 7.0 0.00 0.00 0.00 84 1013.3
20260505152338 78 219 4.3 7.0 0.00 0.00 0.00 85 1013.4
20260505151837 77 228 6.1 7.8 0.00 0.00 0.00 86 1013.2
20260505151335 77 256 7.0 7.8 0.00 0.00 0.00 88 1013.3
20260505150832 77 125 1.7 2.6 0.00 0.00 0.00 90 1013.1
20260505150329 76 207 3.5 5.2 0.00 0.00 0.00 90 1013.2
20260505140253 76 291 4.3 6.1 0.00 0.00 0.00 87 1013.5
20260505130217 75 215 4.3 5.2 0.00 0.00 0.00 88 1012.9
20260505124707 75 221 1.7 1.7 0.00 0.00 0.00 89 1013.1
20260505124203 75 181 1.7 1.7 0.00 0.00 0.00 89 1012.7
20260505123659 75 217 2.6 2.6 0.00 0.00 0.00 89 1012.8
20260505123156 75 271 3.5 5.2 0.00 0.00 0.00 89 1012.6
20260505122653 74 235 2.6 2.6 0.00 0.00 0.00 89 1012.4
20260505122150 74 166 1.7 2.6 0.00 0.00 0.00 89 1012.3
20260505121647 74 192 2.6 4.3 0.00 0.00 0.00 89 1012.8
20260505121143 74 197 1.7 1.7 0.00 0.00 0.00 89 1012.9
20260505120639 74 224 2.6 2.6 0.00 0.00 0.00 89 1013.0
20260505120136 74 203 1.7 1.7 0.00 0.00 0.00 89 1012.8
20260505115630 74 224 4.3 5.2 0.00 0.00 0.00 89 1012.7
20260505115128 74 170 0.9 0.9 0.00 0.00 0.00 89 1012.5
20260505114624 74 248 5.2 6.1 0.00 0.00 0.00 89 1012.6
20260505114121 74 182 1.7 2.6 0.00 0.00 0.00 89 1012.7
20260505113617 74 166 0.9 1.7 0.00 0.00 0.00 89 1012.4
20260505113114 74 184 0.9 1.7 0.00 0.00 0.00 89 1012.5
20260505112610 74 164 1.7 1.7 0.00 0.00 0.00 89 1012.7
20260505112108 74 199 1.7 2.6 0.00 0.00 0.00 89 1012.7
20260505111602 74 254 4.3 5.2 0.00 0.00 0.00 89 1012.7
20260505111058 74 223 2.6 2.6 0.00 0.00 0.00 89 1012.9
20260505110555 74 259 1.7 1.7 0.00 0.00 0.00 89 1013.1
20260505102027 74 156 0.9 0.9 0.00 0.00 0.00 88 1012.5
20260505101526 74 179 0.9 1.7 0.00 0.00 0.00 88 1012.6
20260505101022 74 278 3.5 4.3 0.00 0.00 0.00 88 1012.3
20260505100519 74 206 1.7 4.3 0.00 0.00 0.00 88 1012.3
20260505100016 74 241 2.6 4.3 0.00 0.00 0.00 87 1012.5
20260505095512 74 188 1.7 1.7 0.00 0.00 0.00 87 1012.6
20260505095008 74 180 2.6 4.3 0.00 0.00 0.00 88 1012.8
20260505094505 74 233 2.6 2.6 0.00 0.00 0.00 88 1012.8
20260505094001 74 213 1.7 2.6 0.00 0.00 0.00 87 1013.0
20260505093457 74 248 2.6 4.3 0.00 0.00 0.00 87 1013.0
20260505092955 74 234 1.7 1.7 0.00 0.00 0.00 87 1013.0
20260505092452 74 211 0.9 1.7 0.00 0.00 0.00 87 1012.7
20260505091950 74 247 2.6 4.3 0.00 0.00 0.00 88 1012.9
20260505091447 74 239 1.7 1.7 0.00 0.00 0.00 88 1012.9
20260505090945 74 206 1.7 4.3 0.00 0.00 0.00 87 1012.9
20260505090443 74 248 4.3 5.2 0.00 0.00 0.00 87 1013.1
20260505085940 74 234 1.7 1.7 0.00 0.00 0.00 87 1012.8
20260505085438 74 219 1.7 1.7 0.00 0.00 0.00 87 1012.8
20260505084936 74 223 0.9 0.9 0.00 0.00 0.00 87 1012.8
20260505084434 74 259 2.6 2.6 0.00 0.00 0.00 87 1012.8
20260505083932 74 278 3.5 5.2 0.00 0.00 0.00 86 1012.8
20260505083429 74 255 4.3 5.2 0.00 0.00 0.00 86 1013.0
20260505082925 74 205 1.7 1.7 0.00 0.00 0.00 86 1012.9
20260505082421 74 285 3.5 5.2 0.00 0.00 0.00 86 1012.6
20260505081918 74 289 1.7 2.6 0.00 0.00 0.00 86 1012.9
20260505081415 74 261 5.2 6.1 0.00 0.00 0.00 86 1013.0
20260505080911 74 231 0.9 4.3 0.00 0.00 0.00 86 1013.1
20260505080408 74 229 1.7 1.7 0.00 0.00 0.00 86 1013.0
20260505075903 74 218 2.6 4.3 0.00 0.00 0.00 86 1013.2
20260505075400 74 250 1.7 2.6 0.00 0.00 0.00 85 1013.3
20260505074857 74 249 4.3 7.0 0.00 0.00 0.00 85 1013.4
20260505074354 73 273 1.7 2.6 0.00 0.00 0.00 86 1013.4
20260505073852 73 250 5.2 7.0 0.00 0.00 0.00 85 1013.1
20260505073349 73 216 2.6 2.6 0.00 0.00 0.00 86 1013.1
20260505072846 73 275 3.5 5.2 0.00 0.00 0.00 85 1013.6
20260505072342 73 217 2.6 4.3 0.00 0.00 0.00 86 1013.2
20260505071838 73 235 2.6 4.3 0.00 0.00 0.00 85 1013.2
20260505071335 73 186 0.9 1.7 0.00 0.00 0.00 85 1013.3
20260505070833 73 212 3.5 4.3 0.00 0.00 0.00 86 1013.4
20260505070329 73 198 2.6 5.2 0.00 0.00 0.00 86 1013.6
20260505065825 73 197 1.7 1.7 0.00 0.00 0.00 86 1013.6
20260505065322 73 262 3.5 5.2 0.00 0.00 0.00 86 1013.7
20260505064819 73 266 2.6 2.6 0.00 0.00 0.00 86 1014.0
20260505064316 73 231 4.3 5.2 0.00 0.00 0.00 86 1014.0
20260505063814 73 244 2.6 4.3 0.00 0.00 0.00 86 1013.7
20260505063310 73 228 0.9 1.7 0.00 0.00 0.00 85 1014.2
20260505062806 73 202 1.7 1.7 0.00 0.00 0.00 85 1014.1
20260505062304 73 268 3.5 4.3 0.00 0.00 0.00 85 1014.1
20260505061800 73 214 0.9 1.7 0.00 0.00 0.00 85 1014.3
20260505061259 73 198 1.7 1.7 0.00 0.00 0.00 85 1014.3
20260505060756 73 267 2.6 2.6 0.00 0.00 0.00 85 1014.3
20260505060253 73 207 0.9 0.9 0.00 0.00 0.00 85 1014.2
20260505055748 73 220 2.6 5.2 0.00 0.00 0.00 85 1014.2
20260505055245 73 235 3.5 5.2 0.00 0.00 0.00 84 1014.3
20260505054742 73 214 1.7 2.6 0.00 0.00 0.00 84 1014.5
20260505054240 73 267 2.6 2.6 0.00 0.00 0.00 84 1014.4
20260505053738 73 215 0.9 0.9 0.00 0.00 0.00 84 1014.3
20260505053234 73 225 2.6 2.6 0.00 0.00 0.00 84 1014.4
20260505052732 73 205 0.9 1.7 0.00 0.00 0.00 84 1014.2
20260505052228 73 231 2.6 4.3 0.00 0.00 0.00 84 1014.4
20260505051725 73 241 2.6 2.6 0.00 0.00 0.00 84 1014.5
20260505051223 73 258 3.5 5.2 0.00 0.00 0.00 84 1014.3
20260505050721 73 233 1.7 1.7 0.00 0.00 0.00 84 1014.4
20260505050219 72 220 1.7 1.7 0.00 0.00 0.00 84 1014.5
20260505041648 72 224 0.9 0.9 0.00 0.00 0.00 84 1015.1
20260505041146 72 225 1.7 1.7 0.00 0.00 0.00 84 1014.7
20260505040643 72 244 1.7 2.6 0.00 0.00 0.00 84 1014.9
20260505040140 72 159 1.7 1.7 0.00 0.00 0.00 84 1014.9
20260505035636 72 215 1.7 1.7 0.00 0.00 0.00 83 1014.9
20260505035132 72 170 0.9 0.9 0.00 0.00 0.00 83 1015.4
20260505034629 72 220 0.9 0.9 0.00 0.00 0.00 83 1015.2
20260505034126 72 178 0.9 0.9 0.00 0.00 0.00 83 1015.2
20260505033623 72 237 0.9 1.7 0.00 0.00 0.00 83 1014.9
20260505033121 72 238 0.9 0.9 0.00 0.00 0.00 83 1015.2
20260505032619 72 285 0.9 0.9 0.00 0.00 0.00 83 1015.2
20260505032115 72 279 0.0 0.0 0.00 0.00 0.00 82 1015.3
20260505031613 73 164 0.9 1.7 0.00 0.00 0.00 82 1014.9
20260505031108 72 166 0.9 0.9 0.00 0.00 0.00 82 1015.0
20260505030606 73 216 1.7 2.6 0.00 0.00 0.00 82 1015.3
20260505025557 73 211 1.7 1.7 0.00 0.00 0.00 81 1015.2
20260505025057 73 205 1.7 1.7 0.00 0.00 0.00 81 1015.3
20260505024553 73 155 0.9 0.9 0.00 0.00 0.00 81 1015.0
20260505024050 73 204 1.7 1.7 0.00 0.00 0.00 81 1015.2
20260505023548 73 201 1.7 1.7 0.00 0.00 0.00 81 1015.2
20260505023045 73 205 2.6 2.6 0.00 0.00 0.00 80 1015.0
20260505022543 73 202 1.7 1.7 0.00 0.00 0.00 80 1015.2
20260505022040 73 279 0.9 0.9 0.00 0.00 0.00 80 1015.2
20260505021536 73 231 1.7 1.7 0.00 0.00 0.00 80 1015.1
20260505021033 73 174 0.9 0.9 0.00 0.00 0.00 80 1014.8
20260505020532 73 212 2.6 4.3 0.00 0.00 0.00 80 1015.1
20260505020030 73 174 0.9 0.9 0.00 0.00 0.00 80 1015.0
20260505015527 73 173 0.9 1.7 0.00 0.00 0.00 80 1014.8
20260505015024 74 203 1.7 1.7 0.00 0.00 0.00 79 1014.8
20260505014520 73 168 0.9 0.9 0.00 0.00 0.00 79 1014.8
20260505014018 73 151 0.0 0.9 0.00 0.00 0.00 79 1014.8
20260505013515 74 153 0.9 0.9 0.00 0.00 0.00 79 1014.8
20260505013012 74 228 0.9 1.7 0.00 0.00 0.00 79 1014.7
20260505012510 74 163 0.0 0.0 0.00 0.00 0.00 79 1015.0
20260505012007 74 170 1.7 1.7 0.00 0.00 0.00 78 1015.1
20260505011502 74 251 2.6 2.6 0.00 0.00 0.00 78 1015.0
20260505011000 74 172 1.7 2.6 0.00 0.00 0.00 78 1014.7
20260505010455 74 122 0.9 0.9 0.00 0.00 0.00 78 1014.9
20260505005951 74 164 0.9 1.7 0.00 0.00 0.00 77 1015.0
20260505005448 74 265 3.5 4.3 0.00 0.00 0.00 77 1014.7
20260505004946 75 227 5.2 7.8 0.00 0.00 0.00 76 1014.8
20260505004443 75 119 0.9 0.9 0.00 0.00 0.00 76 1014.6
20260505003940 75 149 0.9 1.7 0.00 0.00 0.00 76 1014.6
20260505003437 75 228 4.3 5.2 0.00 0.00 0.00 75 1014.5
20260505002933 75 95 2.6 4.3 0.00 0.00 0.00 75 1014.7
20260505002429 75 196 3.5 5.2 0.00 0.00 0.00 75 1014.9
20260505001928 75 211 3.5 5.2 0.00 0.00 0.00 74 1014.9
20260505001425 76 225 5.2 7.0 0.00 0.00 0.00 74 1014.7
20260505000922 76 206 2.6 2.6 0.00 0.00 0.00 74 1014.8
20260505000420 76 142 0.9 0.9 0.00 0.00 0.00 74 1014.7
20260504235916 76 267 3.5 5.2 0.00 0.00 0.00 74 1014.9
20260504235414 76 219 4.3 6.1 0.00 0.00 0.00 74 1015.0
20260504234910 76 227 2.6 2.6 0.00 0.00 0.00 74 1014.9
20260504234408 77 130 1.7 1.7 0.00 0.00 0.00 73 1015.0
20260504233904 77 107 1.7 2.6 0.00 0.00 0.00 72 1015.0
20260504233359 77 207 4.3 6.1 0.00 0.00 0.00 73 1015.2
20260504232856 78 238 1.7 2.6 0.00 0.00 0.00 71 1015.0
20260504232354 78 123 0.0 0.9 0.00 0.00 0.00 70 1015.1
20260504231850 77 246 1.7 4.3 0.00 0.00 0.00 72 1015.0
20260504231347 77 188 0.9 0.9 0.00 0.00 0.00 72 1015.5
20260504230843 76 116 1.7 1.7 0.00 0.00 0.00 72 1015.4
20260504230341 76 251 6.1 7.0 0.00 0.00 0.00 72 1015.3
20260504225839 76 207 5.2 7.0 0.00 0.00 0.00 72 1015.5
20260504225335 77 278 4.3 6.1 0.00 0.00 0.00 72 1015.5
20260504224833 77 169 0.9 1.7 0.00 0.00 0.00 72 1015.7
20260504224330 77 171 2.6 5.2 0.00 0.00 0.00 71 1015.5
20260504223826 77 177 0.9 0.9 0.00 0.00 0.00 71 1015.7
20260504223322 77 247 4.3 6.1 0.00 0.00 0.00 71 1015.7
20260504222819 77 222 5.2 7.0 0.00 0.00 0.00 71 1015.9
20260504222316 77 153 1.7 1.7 0.00 0.00 0.00 72 1015.9
20260504221814 77 129 0.9 0.9 0.00 0.00 0.00 72 1015.8
20260504221310 77 255 4.3 5.2 0.00 0.00 0.00 71 1016.1
20260504220807 77 230 1.7 2.6 0.00 0.00 0.00 71 1016.2
20260504220304 77 170 2.6 5.2 0.00 0.00 0.00 70 1015.9
20260504215802 78 176 4.3 6.1 0.00 0.00 0.00 70 1015.9
20260504215258 77 284 2.6 5.2 0.00 0.00 0.00 70 1016.0
20260504214754 77 164 0.9 0.9 0.00 0.00 0.00 70 1016.2
20260504214250 77 106 0.9 1.7 0.00 0.00 0.00 69 1016.0
20260504213747 78 194 0.9 1.7 0.00 0.00 0.00 69 1016.5
20260504213243 78 250 0.9 1.7 0.00 0.00 0.00 69 1016.3
20260504212741 78 214 1.7 4.3 0.00 0.00 0.00 68 1016.2
20260504212237 78 212 2.6 5.2 0.00 0.00 0.00 69 1016.4
20260504211735 78 188 1.7 1.7 0.00 0.00 0.00 68 1016.6
20260504211231 78 203 2.6 4.3 0.00 0.00 0.00 68 1016.6
20260504210728 78 250 6.1 7.0 0.00 0.00 0.00 67 1016.4
20260504210225 78 148 1.7 2.6 0.00 0.00 0.00 68 1016.6
20260504205722 78 234 5.2 6.1 0.00 0.00 0.00 67 1016.7
20260504205220 79 198 1.7 2.6 0.00 0.00 0.00 67 1016.4
20260504204718 79 213 2.6 4.3 0.00 0.00 0.00 66 1016.5
20260504204216 80 228 4.3 7.0 0.00 0.00 0.00 65 1016.9
20260504203715 80 190 0.9 1.7 0.00 0.00 0.00 65 1016.9
20260504203212 82 135 2.6 5.2 0.00 0.00 0.00 62 1016.8
20260504202712 79 184 0.9 0.9 0.00 0.00 0.00 65 1017.2
20260504202210 81 226 3.5 5.2 0.00 0.00 0.00 64 1017.2
20260504201706 80 282 2.6 6.1 0.00 0.00 0.00 65 1017.0
20260504201204 79 207 1.7 2.6 0.00 0.00 0.00 66 1017.0
20260504200701 81 133 2.6 2.6 0.00 0.00 0.00 63 1017.1
20260504200157 82 161 1.7 1.7 0.00 0.00 0.00 62 1017.2
20260504195653 80 119 1.7 1.7 0.00 0.00 0.00 63 1017.3
20260504195150 80 258 3.5 6.1 0.00 0.00 0.00 64 1017.5
20260504194647 81 88 2.6 5.2 0.00 0.00 0.00 62 1017.4
20260504194142 80 268 3.5 6.1 0.00 0.00 0.00 63 1017.6
20260504193639 80 145 0.9 1.7 0.00 0.00 0.00 64 1017.3
20260504193137 82 256 4.3 5.2 0.00 0.00 0.00 63 1017.7
20260504192635 81 139 1.7 2.6 0.00 0.00 0.00 63 1017.7
20260504192133 80 158 1.7 1.7 0.00 0.00 0.00 64 1017.6
20260504191631 79 273 5.2 7.0 0.00 0.00 0.00 65 1017.7
20260504191127 80 159 0.9 0.9 0.00 0.00 0.00 63 1017.6
20260504190623 81 260 0.9 1.7 0.00 0.00 0.00 62 1017.7
20260504190120 79 246 5.2 7.8 0.00 0.00 0.00 65 1018.0
20260504185616 80 230 4.3 5.2 0.00 0.00 0.00 64 1018.1
20260504185113 80 178 0.0 0.9 0.00 0.00 0.00 62 1017.9
20260504184609 79 194 3.5 4.3 0.00 0.00 0.00 62 1017.8
20260504184104 80 235 3.5 4.3 0.00 0.00 0.00 63 1017.6
20260504183602 80 250 6.1 7.8 0.00 0.00 0.00 61 1017.7
20260504183059 80 244 2.6 5.2 0.00 0.00 0.00 64 1017.9
20260504182556 80 182 0.0 0.9 0.00 0.00 0.00 64 1018.0
20260504182054 79 232 2.6 4.3 0.00 0.00 0.00 64 1018.2
20260504181550 79 111 4.3 7.0 0.00 0.00 0.00 64 1018.1
20260504181049 80 169 0.9 0.9 0.00 0.00 0.00 62 1018.3
20260504180547 80 218 2.6 4.3 0.00 0.00 0.00 62 1018.5
20260504180046 79 195 1.7 2.6 0.00 0.00 0.00 63 1018.3
20260504175543 79 268 4.3 5.2 0.00 0.00 0.00 66 1018.3
20260504175040 79 293 1.7 2.6 0.00 0.00 0.00 63 1018.2
20260504174538 78 263 2.6 4.3 0.00 0.00 0.00 63 1018.6
20260504174034 80 223 3.5 4.3 0.00 0.00 0.00 62 1018.5
20260504173531 80 204 2.6 2.6 0.00 0.00 0.00 63 1018.9
20260504173028 79 272 5.2 6.1 0.00 0.00 0.00 64 1018.7
20260504172524 79 294 6.1 8.7 0.00 0.00 0.00 62 1018.7
20260504172021 79 177 1.7 1.7 0.00 0.00 0.00 63 1018.8
20260504171518 79 147 1.7 1.7 0.00 0.00 0.00 64 1018.9
20260504171015 78 251 3.5 7.0 0.00 0.00 0.00 65 1019.1
20260504170510 78 279 2.6 5.2 0.00 0.00 0.00 64 1019.2
20260504160431 77 162 3.5 5.2 0.00 0.00 0.00 66 1019.4